• In Hungary
  • List of Countries
  • For 7 days
  • Water Temperature
  • Satellite Maps
  • Weather Map
  • News
  • Weather Widgets
  • user-avatar
    Login

    Hourly Weather Santa Elena de Uairén

    Today, 18 October, Wednesday

    Time Temperature Precipitation Wind Pressure Humidity
    00:00 +23°C° 0 mm 1 mps 682 mmHg 82%
    01:00 +22°C° 0 mm 1 mps 682 mmHg 82%
    02:00 +22°C° 0 mm 1 mps 681 mmHg 82%
    03:00 +22°C° 0 mm 1 mps 681 mmHg 82%
    04:00 +22°C° 0 mm 1 mps 681 mmHg 82%
    05:00 +21°C° 0 mm 1 mps 681 mmHg 82%
    06:00 +23°C° 0 mm 1 mps 682 mmHg 76%
    07:00 +25°C° 0 mm 1 mps 682 mmHg 70%
    08:00 +26°C° 0 mm 1 mps 683 mmHg 64%
    09:00 +28°C° 0 mm 1 mps 683 mmHg 58%
    10:00 +29°C° 0 mm 2 mps 683 mmHg 52%
    11:00 +31°C° 0 mm 2 mps 684 mmHg 46%
    12:00 +31°C° 0.2 mm 2 mps 683 mmHg 46%
    13:00 +31°C° 0.2 mm 2 mps 682 mmHg 47%
    14:00 +32°C° 0.2 mm 2 mps 681 mmHg 47%
    15:00 +30°C° 0.5 mm 2 mps 681 mmHg 52%
    16:00 +29°C° 0.5 mm 2 mps 681 mmHg 57%
    17:00 +28°C° 0.5 mm 2 mps 680 mmHg 63%
    18:00 +27°C° 1 mm 2 mps 681 mmHg 68%
    19:00 +25°C° 1 mm 2 mps 681 mmHg 73%
    20:00 +24°C° 1 mm 2 mps 681 mmHg 78%
    21:00 +24°C° 0.4 mm 2 mps 681 mmHg 79%
    22:00 +23°C° 0.4 mm 2 mps 682 mmHg 81%
    23:00 +23°C° 0.4 mm 2 mps 682 mmHg 82%

    Tomorrow, 19 October, Thursday

    Time Temperature Precipitation Wind Pressure Humidity
    00:00 +23°C° 0 mm 2 mps 682 mmHg 82%
    01:00 +21°C° 0 mm 2 mps 681 mmHg 83%
    02:00 +21°C° 0 mm 2 mps 681 mmHg 84%
    03:00 +22°C° 0 mm 1 mps 681 mmHg 84%
    04:00 +21°C° 0 mm 1 mps 680 mmHg 85%
    05:00 +21°C° 0 mm 1 mps 680 mmHg 86%
    06:00 +23°C° 0 mm 1 mps 681 mmHg 80%
    07:00 +24°C° 0 mm 1 mps 682 mmHg 75%
    08:00 +26°C° 0 mm 1 mps 683 mmHg 70%
    09:00 +27°C° 0 mm 2 mps 683 mmHg 62%
    10:00 +29°C° 0 mm 2 mps 683 mmHg 54%
    11:00 +31°C° 0 mm 3 mps 683 mmHg 46%
    12:00 +31°C° 0 mm 3 mps 682 mmHg 46%
    13:00 +31°C° 0 mm 3 mps 681 mmHg 46%
    14:00 +31°C° 0 mm 3 mps 680 mmHg 46%
    15:00 +30°C° 0.3 mm 2 mps 680 mmHg 51%
    16:00 +29°C° 0.3 mm 2 mps 680 mmHg 56%
    17:00 +29°C° 0.3 mm 2 mps 680 mmHg 61%
    18:00 +27°C° 0.4 mm 2 mps 680 mmHg 66%
    19:00 +26°C° 0.4 mm 2 mps 680 mmHg 70%
    20:00 +25°C° 0.4 mm 2 mps 681 mmHg 74%
    21:00 +24°C° 0.1 mm 2 mps 681 mmHg 76%
    22:00 +24°C° 0.1 mm 2 mps 681 mmHg 79%
    23:00 +23°C° 0.1 mm 2 mps 682 mmHg 81%

    Day after tomorrow, 20 October, Friday

    Time Temperature Precipitation Wind Pressure Humidity
    00:00 +23°C° 0 mm 2 mps 681 mmHg 81%
    01:00 +21°C° 0 mm 2 mps 680 mmHg 82%
    02:00 +21°C° 0 mm 2 mps 680 mmHg 83%
    03:00 +21°C° 0 mm 2 mps 680 mmHg 83%
    04:00 +20°C° 0 mm 2 mps 680 mmHg 84%
    05:00 +20°C° 0 mm 2 mps 680 mmHg 84%
    06:00 +23°C° 0 mm 2 mps 681 mmHg 79%
    07:00 +24°C° 0 mm 2 mps 682 mmHg 74%
    08:00 +25°C° 0 mm 2 mps 682 mmHg 68%
    09:00 +27°C° 0 mm 2 mps 683 mmHg 61%
    10:00 +29°C° 0 mm 2 mps 683 mmHg 53%
    11:00 +31°C° 0 mm 3 mps 683 mmHg 46%
    12:00 +31°C° 0.1 mm 3 mps 682 mmHg 46%
    13:00 +31°C° 0.1 mm 3 mps 681 mmHg 46%
    14:00 +31°C° 0.1 mm 3 mps 680 mmHg 46%
    15:00 +30°C° 0.2 mm 3 mps 680 mmHg 51%
    16:00 +29°C° 0.2 mm 2 mps 680 mmHg 55%
    17:00 +29°C° 0.2 mm 2 mps 679 mmHg 59%
    18:00 +27°C° 0.2 mm 2 mps 680 mmHg 64%
    19:00 +26°C° 0.2 mm 2 mps 680 mmHg 69%
    20:00 +25°C° 0.2 mm 2 mps 681 mmHg 73%
    21:00 +24°C° 0 mm 2 mps 681 mmHg 75%
    22:00 +24°C° 0 mm 2 mps 681 mmHg 77%
    23:00 +23°C° 0 mm 2 mps 681 mmHg 79%

    21 October, Saturday

    Time Temperature Precipitation Wind Pressure Humidity
    00:00 +23°C° 0 mm 2 mps 681 mmHg 79%
    01:00 +23°C° 0 mm 2 mps 680 mmHg 79%
    02:00 +21°C° 0 mm 2 mps 680 mmHg 79%
    03:00 +21°C° 0 mm 2 mps 680 mmHg 79%
    04:00 +21°C° 0 mm 2 mps 680 mmHg 79%
    05:00 +21°C° 0 mm 2 mps 680 mmHg 79%
    06:00 +23°C° 0 mm 2 mps 681 mmHg 75%
    07:00 +24°C° 0 mm 2 mps 682 mmHg 71%
    08:00 +25°C° 0 mm 3 mps 682 mmHg 67%
    09:00 +27°C° 0 mm 3 mps 683 mmHg 59%
    10:00 +29°C° 0 mm 3 mps 683 mmHg 52%
    11:00 +31°C° 0 mm 3 mps 683 mmHg 44%
    12:00 +31°C° 0 mm 3 mps 682 mmHg 44%
    13:00 +33°C° 0 mm 3 mps 682 mmHg 44%
    14:00 +33°C° 0 mm 3 mps 681 mmHg 43%
    15:00 +31°C° 0.2 mm 3 mps 681 mmHg 48%
    16:00 +30°C° 0.2 mm 3 mps 680 mmHg 52%
    17:00 +29°C° 0.2 mm 2 mps 680 mmHg 56%
    18:00 +28°C° 0.1 mm 2 mps 681 mmHg 59%
    19:00 +26°C° 0.1 mm 2 mps 681 mmHg 62%
    20:00 +25°C° 0.1 mm 2 mps 681 mmHg 65%
    21:00 +25°C° 0 mm 2 mps 682 mmHg 67%
    22:00 +24°C° 0 mm 2 mps 682 mmHg 69%
    23:00 +23°C° 0 mm 2 mps 682 mmHg 71%

    22 October, Sunday

    Time Temperature Precipitation Wind Pressure Humidity
    00:00 +23°C° 0 mm 2 mps 681 mmHg 72%
    01:00 +23°C° 0 mm 2 mps 681 mmHg 73%
    02:00 +21°C° 0 mm 2 mps 680 mmHg 74%
    03:00 +21°C° 0 mm 2 mps 680 mmHg 75%
    04:00 +21°C° 0 mm 2 mps 681 mmHg 76%
    05:00 +20°C° 0 mm 2 mps 681 mmHg 77%
    06:00 +23°C° 0 mm 2 mps 681 mmHg 71%
    07:00 +25°C° 0 mm 3 mps 682 mmHg 66%
    08:00 +26°C° 0 mm 3 mps 683 mmHg 61%
    09:00 +28°C° 0 mm 3 mps 683 mmHg 55%
    10:00 +30°C° 0 mm 3 mps 683 mmHg 48%
    11:00 +33°C° 0 mm 3 mps 683 mmHg 42%
    12:00 +33°C° 0 mm 3 mps 683 mmHg 41%
    13:00 +33°C° 0 mm 3 mps 682 mmHg 39%
    14:00 +34°C° 0 mm 3 mps 681 mmHg 38%
    15:00 +33°C° 0 mm 3 mps 681 mmHg 42%
    16:00 +31°C° 0 mm 2 mps 681 mmHg 45%
    17:00 +30°C° 0 mm 2 mps 681 mmHg 49%
    18:00 +29°C° 0 mm 2 mps 681 mmHg 53%
    19:00 +27°C° 0 mm 2 mps 681 mmHg 58%
    20:00 +26°C° 0 mm 2 mps 682 mmHg 62%
    21:00 +25°C° 0 mm 2 mps 682 mmHg 66%
    22:00 +24°C° 0 mm 2 mps 682 mmHg 70%
    23:00 +24°C° 0 mm 2 mps 682 mmHg 74%

    23 October, Monday

    Time Temperature Precipitation Wind Pressure Humidity
    00:00 +23°C° 0 mm 2 mps 681 mmHg 76%
    01:00 +23°C° 0 mm 2 mps 681 mmHg 77%
    02:00 +21°C° 0 mm 2 mps 680 mmHg 79%
    03:00 +21°C° 0 mm 2 mps 680 mmHg 79%
    04:00 +21°C° 0 mm 2 mps 680 mmHg 79%
    05:00 +21°C° 0 mm 2 mps 680 mmHg 80%
    06:00 +23°C° 0 mm 2 mps 681 mmHg 72%
    07:00 +25°C° 0 mm 2 mps 682 mmHg 65%
    08:00 +27°C° 0 mm 2 mps 683 mmHg 57%
    09:00 +29°C° 0 mm 2 mps 683 mmHg 51%
    10:00 +31°C° 0 mm 2 mps 683 mmHg 44%
    11:00 +33°C° 0 mm 3 mps 683 mmHg 38%
    12:00 +33°C° 0 mm 3 mps 682 mmHg 39%
    13:00 +32°C° 0 mm 2 mps 681 mmHg 40%
    14:00 +32°C° 0 mm 2 mps 680 mmHg 41%
    15:00 +31°C° 0 mm 2 mps 680 mmHg 45%
    16:00 +30°C° 0 mm 2 mps 680 mmHg 48%
    17:00 +30°C° 0 mm 1 mps 679 mmHg 51%
    18:00 +28°C° 0 mm 2 mps 680 mmHg 55%
    19:00 +27°C° 0 mm 2 mps 680 mmHg 60%
    20:00 +26°C° 0 mm 2 mps 680 mmHg 64%
    21:00 +25°C° 0.2 mm 2 mps 680 mmHg 68%
    22:00 +24°C° 0.2 mm 2 mps 680 mmHg 73%
    23:00 +24°C° 0.2 mm 2 mps 680 mmHg 77%
    Show more